SCP
-0 -0 -0 0 0 0 0 0 0 0 0 0 0 0 0 0 0 0 0 0 0 0 -0 -0 -0 -0 0 0 0 0 0 -0 0 -0 -0 -0 0 0 -0 0 0 0 0 0 0 0 0
0 -0 -0 -0 -0 -0 -0 -0 0 0 0 0 0 0 0 0 0 0 0 0 0 0 0 0 0 0 0 0 0 0 0 0 -0 0 -0 -0 0 -0 -0 -0 0 0 0 0 0 0 0
0 -0 -0 -0 -0 -0 -0 -0 -0 -0 0 0 0 0 0 0 0 0 0 0 0 0 -0 0 0 0 0 0 0 0 0 0 0 0 -0 -0 -0 -0 0 -0 0 0 0 0 0 0 0
0 0 0 0 0 0 -0 -0 -0 -0 -0 -0 -0 -0 -0 0 -0 -0 0 0 0 -0 -0 -0 0 0 0 0 0 0 0 0 0 0 0 0 0 -0 -0 -0 0 -0 -0 0 0 0 0
0 0 0 0 0 0 0 0 0 0 0 -0 -0 -0 -0 -0 -0 -0 -0 0 0 0 0 0 0 0 0 0 0 0 0 0 0 0 0 0 0 0 0 -0 -0 0 0 0 0 0 0
0 0 0 0 0 0 0 0 0 0 0 0 -0 -0 -0 -0 -0 -0 -0 -0 0 0 0 0 0 0 0 0 0 0 0 0 0 0 0 0 0 0 0 -0 0 -0 0 0 0 0 0
0 0 0 0 0 0 0 0 0 0 0 0 0 -0 -0 -0 -0 -0 0 -0 0 0 0 0 0 0 0 0 0 0 0 0 0 0 0 0 0 -0 -0 -0 0 0 -0 0 0 0 0
0 0 0 0 0 0 0 0 0 0 0 0 0 0 -0 -0 -0 -0 0 0 0 0 0 0 0 0 0 0 0 0 0 0 0 0 0 0 -0 -0 0 -0 0 -0 -0 -0 -0 -0 0
0 0 0 0 0 0 0 0 0 0 0 0 0 0 0 -0 -0 0 0 0 0 0 0 0 0 0 0 0 0 0 0 0 0 0 0 0 0 0 0 0 0 -0 -0 0 0 -0 -0
-0 -0 -0 -0 0 0 0 0 0 -0 -0 0 0 0 0 -0 0 0 0 0 0 0 0 0 0 0 0 0 0 0 0 0 0 0 0 0 0 0 0 0 0 -0 -0 -0 0 0 0
0 -0 -0 0 0 0 0 -0 -0 -0 -0 -0 -0 -0 0 0 0 0 0 0 0 -0 0 0 0 0 0 0 0 0 0 0 0 0 0 0 0 0 0 0 0 0 0 -0 0 0 0
0 0 -0 -0 0 0 0 0 -0 -0 -0 -0 -0 0 0 0 0 0 0 0 0 0 0 0 0 0 0 0 0 0 0 0 0 0 0 0 0 0 0 0 0 0 0 0 0 0 0
0 0 0 0 0 0 0 0 0 0 -0 -0 -0 -0 0 0 0 0 0 0 0 0 0 0 0 0 0 0 0 0 0 0 0 0 0 0 0 0 0 0 0 0 0 0 0 0 0
0 0 0 0 0 0 0 0 0 -0 -0 0 -0 -0 0 0 0 0 0 0 0 0 0 0 0 0 0 0 0 0 0 0 0 0 0 0 0 0 0 0 0 0 0 0 0 0 0
0 0 0 0 0 0 0 0 0 0 -0 -0 0 0 0 0 0 0 0 0 0 0 0 0 0 0 0 0 0 0 0 0 0 0 0 0 0 0 0 0 0 0 0 0 0 0 0
0 0 0 0 0 0 0 0 0 0 0 0 0 0 0 0 0 0 0 0 0 0 0 0 0 0 0 0 0 0 0 0 0 0 0 0 0 0 0 0 0 0 0 0 0 0 0
0 0 0 0 0 0 0 0 0 0 0 0 0 0 0 0 0 0 0 0 0 0 0 0 0 0 0 0 0 0 0 0 0 0 0 0 0 0 0 0 0 0 0 0 0 0 0
0 0 0 0 0 0 0 0 0 0 0 0 0 0 0 0 0 0 0 0 0 0 0 0 0 0 0 0 0 0 0 0 0 0 0 0 0 0 0 0 0 0 0 0 0 0 0
0 0 0 0 0 0 0 0 0 0 0 0 0 0 0 0 0 0 0 0 0 0 0 0 0 0 0 0 0 0 0 0 -0 -0 0 0 0 0 0 0 0 0 0 0 0 0 0
0 0 0 0 0 0 0 0 0 0 0 0 0 0 0 0 0 0 0 0 0 0 0 0 0 0 0 0 0 0 0 0 0 0 0 0 0 0 0 0 0 0 0 0 0 0 0
0 0 0 0 0 0 0 0 0 0 0 0 0 0 0 0 0 0 0 0 0 0 0 0 0 0 0 0 0 0 0 0 0 0 0 0 -0 0 0 0 0 0 0 0 0 -0 0
0 0 0 0 0 0 0 0 0 0 0 0 0 0 0 0 0 0 0 0 0 0 0 0 0 0 0 0 0 0 0 0 0 0 0 0 0 0 0 0 0 0 0 0 0 0 0
0 0 0 0 0 0 0 0 0 0 0 0 0 0 0 0 0 0 0 0 0 0 0 0 0 0 0 0 0 0 0 -0 0 0 0 0 0 0 0 0 0 0 0 0 0 0 0
0 0 0 0 0 0 0 0 0 0 0 0 0 0 0 0 0 0 0 0 0 0 0 0 0 0 0 0 0 0 0 0 0 0 0 0 0 0 0 0 0 0 0 -0 0 -0 0
0 0 0 0 0 0 0 0 0 0 0 0 0 0 0 0 0 0 0 0 0 0 0 0 0 0 0 0 0 0 0 0 0 0 0 0 0 0 0 0 0 0 -0 -0 0 0 -0
0 0 0 0 0 0 0 0 0 0 0 0 0 0 0 0 0 0 0 0 0 0 0 0 0 0 0 0 0 0 0 0 0 0 0 0 0 0 0 0 0 0 0 0 0 0 0
0 0 0 0 0 0 0 0 0 0 0 0 0 0 0 0 0 0 0 0 0 0 0 0 0 0 0 0 0 0 0 0 0 0 0 0 0 0 0 0 0 0 0 0 0 0 -0
0 0 0 0 0 0 0 0 0 0 0 0 0 0 0 0 0 0 0 0 0 0 0 0 0 0 0 0 0 0 0 0 0 0 0 0 0 0 0 0 0 0 0 0 0 -0 0
0 0 0 0 0 0 0 0 0 0 0 0 0 0 0 0 0 0 0 0 0 0 0 0 0 0 0 0 0 0 0 0 0 0 0 0 0 0 0 0 0 0 0 0 0 0 0
Wind_Speed_500mb
19 20 21 22 23 24 26 27 29 30 32 32 33 34 35 37 38 37 37 36 35 33 26 20 17 14 11 8 7 11 10 27 33 24 13 3 9 4 9 6 7 10 11 11 3 12 17
20 21 21 22 23 23 24 27 28 30 32 33 35 37 38 39 40 40 39 37 36 31 22 16 13 12 10 7 11 18 11 26 34 29 23 11 4 4 12 7 9 4 11 8 7 7 10
21 23 24 25 25 25 25 26 28 29 32 34 36 37 39 41 43 43 42 36 31 23 15 12 9 10 17 18 10 20 17 19 25 26 23 15 8 1 7 5 6 8 7 6 9 4 6
25 25 25 25 26 28 29 29 31 32 33 35 37 38 39 41 44 44 39 32 19 16 12 9 8 8 10 7 18 21 24 22 21 21 14 17 11 10 7 14 8 8 6 5 2 5 3
27 29 30 28 28 28 28 29 33 34 36 37 38 39 40 41 44 44 33 30 12 16 12 9 8 6 8 5 8 27 28 20 19 13 14 19 14 10 11 6 3 8 4 2 6 12 6
28 29 32 34 34 33 32 30 32 34 36 38 39 39 39 40 41 33 32 18 15 12 8 11 11 5 7 10 3 16 33 23 15 17 14 10 6 8 6 8 2 5 3 3 7 3 12
27 30 33 37 38 37 35 32 34 36 37 39 41 41 38 37 39 30 24 11 12 5 19 14 12 11 23 14 4 12 31 34 17 13 13 4 11 24 25 23 6 8 3 2 8 3 8
33 34 36 38 38 38 34 32 35 38 40 40 41 41 38 34 31 25 14 14 17 18 21 36 39 40 34 15 5 11 32 24 14 17 10 10 25 24 12 19 11 7 4 6 2 2 9
34 34 35 36 36 37 37 35 35 37 40 41 41 41 37 33 21 22 5 22 30 29 9 14 9 8 15 27 13 14 39 22 10 13 17 21 6 13 17 15 16 13 15 4 4 3 2
28 28 30 32 34 37 37 38 37 37 38 38 38 38 36 30 6 23 3 26 30 13 6 4 2 1 13 14 9 16 38 24 6 23 15 11 2 19 17 25 20 24 1 5 4 5 6
27 28 29 31 32 34 36 37 38 39 38 37 36 34 30 27 26 18 10 23 18 7 4 10 3 8 18 11 17 14 33 15 18 15 13 12 17 15 20 21 19 12 13 10 5 3 5
33 33 33 32 33 34 36 37 37 38 37 36 34 32 30 26 22 3 20 16 1 4 2 5 4 5 10 1 5 13 16 10 9 10 3 5 6 13 14 14 20 23 11 11 7 2 7
31 32 33 34 33 33 35 36 38 38 37 36 33 29 34 24 17 18 14 2 3 5 4 7 6 3 8 9 6 8 18 19 13 13 13 7 11 3 7 17 9 9 10 6 6 8 7
30 32 33 35 35 34 34 36 39 39 38 38 33 31 26 21 21 17 4 4 6 1 5 5 6 4 15 15 11 7 20 23 4 7 9 19 16 17 14 12 17 24 23 10 13 9 7
30 31 32 32 33 35 36 35 37 38 37 37 33 29 13 11 14 12 12 5 5 6 4 14 12 5 9 9 7 13 15 29 23 19 12 14 11 5 9 7 11 13 13 2 10 3 5
29 30 31 33 35 36 37 36 37 36 34 34 33 23 2 9 10 25 3 5 5 8 6 2 4 2 2 7 12 16 17 14 23 30 19 9 12 5 8 9 13 10 22 10 1 8 11
29 29 30 31 33 35 38 39 38 35 30 26 22 6 16 15 22 7 5 8 9 14 11 5 3 6 5 3 9 10 9 9 20 21 16 14 5 10 8 17 21 9 7 9 7 4 12
30 30 30 32 33 34 34 36 39 36 28 19 8 1 7 8 3 1 6 7 4 5 7 7 4 12 7 3 8 15 20 15 26 33 25 15 2 8 11 5 2 6 11 17 13 12 3
33 31 29 30 32 32 32 32 35 34 29 26 14 2 9 3 4 5 3 5 7 3 4 2 5 12 6 7 6 13 9 8 39 32 26 19 9 7 9 4 3 7 8 10 8 6 15
33 31 28 27 29 32 32 29 29 28 20 18 8 1 2 7 2 1 3 3 6 7 9 10 8 8 6 7 8 6 5 1 29 19 33 41 9 15 8 5 7 9 13 17 22 12 14
30 27 25 25 27 29 30 28 25 23 15 10 8 4 4 1 4 1 4 3 7 9 3 5 5 11 6 6 7 6 4 8 4 19 16 17 23 10 7 2 4 6 18 27 26 22 19
30 28 25 25 24 25 24 27 24 19 10 3 4 6 8 7 9 4 6 5 5 4 5 5 6 18 11 8 9 21 18 9 4 12 19 9 9 9 6 13 5 8 6 16 20 10 13
33 30 26 25 23 22 22 21 22 16 10 5 4 3 5 6 5 5 5 3 3 10 7 15 18 24 23 21 15 32 48 48 19 9 19 22 15 10 8 10 8 8 5 11 9 11 12
34 32 28 26 23 22 22 20 17 15 8 2 3 0 2 5 6 5 3 12 11 10 12 25 33 12 7 41 56 13 13 14 12 7 12 15 19 3 6 10 10 5 3 14 17 11 19
37 34 32 23 21 26 21 20 17 15 16 11 8 6 2 6 8 18 13 14 23 22 14 17 24 12 43 29 8 6 8 9 8 9 6 7 11 9 9 16 4 5 8 8 11 7 16
37 35 33 29 25 23 23 25 19 17 17 17 16 16 10 7 7 16 11 11 10 9 10 10 20 27 13 5 7 8 10 6 10 9 8 13 8 6 7 10 14 5 8 6 4 5 21
36 35 33 27 26 26 25 22 22 21 18 19 18 19 18 10 21 13 9 5 8 7 8 9 22 13 14 5 8 8 6 2 10 18 12 8 7 10 9 5 4 7 9 9 5 4 14
30 30 31 33 27 30 29 31 28 25 21 24 22 24 26 16 33 23 13 19 14 12 7 13 9 2 8 4 5 1 3 3 4 5 7 9 11 7 6 3 8 14 13 8 3 2 9
34 32 33 29 33 34 31 29 26 28 27 28 28 22 26 33 26 22 38 56 53 38 20 10 9 11 5 7 5 7 3 3 5 10 1 8 4 9 8 3 3 2 2 2 5 5 9
Wind_Direction_500mb
356 355 354 354 354 357 357 356 355 354 354 355 354 353 351 348 344 341 337 330 326 327 321 309 298 291 291 247 199 173 160 184 183 181 179 257 333 41 49 84 116 75 112 75 39 131 94
343 344 344 344 344 345 346 346 345 346 346 347 348 348 348 347 344 341 336 329 327 322 316 303 292 281 275 254 198 181 166 173 180 177 178 179 300 40 87 70 58 49 97 100 76 112 80
333 333 334 336 338 339 338 336 335 336 338 339 341 343 344 345 343 342 335 331 329 324 315 302 286 273 267 245 205 187 176 158 178 176 191 184 179 8 95 114 88 74 99 66 47 82 84
321 323 326 327 328 330 332 333 331 330 330 332 335 338 341 343 342 343 336 336 335 331 324 313 290 271 253 235 217 185 171 170 162 170 173 190 166 126 79 125 57 57 68 34 329 179 94
332 327 321 319 321 322 323 324 324 326 327 328 330 332 337 343 344 344 335 336 320 323 298 298 293 248 260 219 193 193 181 177 177 181 173 178 164 101 123 133 87 45 356 294 302 201 133
321 325 328 327 324 316 315 319 317 320 323 325 327 329 334 342 346 348 343 340 319 313 296 290 267 268 244 170 146 184 196 184 173 168 148 154 109 144 133 191 304 142 206 231 285 150 202
309 313 318 323 326 326 321 312 312 316 319 322 325 327 333 342 347 356 5 353 348 324 308 253 253 258 279 276 240 196 190 184 177 169 183 113 196 190 184 209 125 131 153 255 281 294 217
298 301 305 309 315 319 322 311 308 310 312 315 319 324 331 340 346 2 14 56 28 329 304 293 271 251 244 228 305 190 180 171 178 182 137 172 214 203 195 160 175 186 245 259 235 96 223
302 303 305 309 312 316 318 318 313 312 313 313 315 319 327 339 344 357 342 9 349 336 274 301 291 260 221 213 224 202 175 162 151 162 189 210 193 178 200 178 196 226 249 172 356 104 210
324 319 315 314 314 315 317 318 318 317 317 318 319 317 320 337 350 350 57 345 338 342 306 288 323 58 169 157 198 172 176 174 138 191 162 237 153 183 188 211 203 227 43 170 166 318 339
332 330 326 323 324 323 321 319 318 317 317 319 323 321 312 320 322 338 324 338 335 351 341 354 86 151 163 185 134 173 177 173 170 159 183 189 170 170 206 207 197 216 63 68 97 109 249
332 328 326 324 327 327 326 324 322 321 321 319 320 319 304 309 319 273 322 335 99 262 287 33 121 168 172 167 114 130 170 160 135 129 184 174 166 190 203 191 197 149 91 74 79 17 243
329 330 329 328 327 323 322 320 320 321 323 320 319 313 303 296 294 294 316 335 220 222 351 30 22 178 206 174 141 146 168 184 181 176 195 198 216 192 176 149 146 179 173 205 211 214 262
328 329 330 331 331 329 323 320 317 317 321 321 324 312 301 286 280 272 252 197 211 285 293 342 322 211 199 175 199 142 164 191 153 146 164 197 208 189 173 202 180 195 212 206 223 210 227
327 327 327 327 328 329 328 324 322 320 321 321 328 324 303 269 254 218 164 204 229 205 329 331 315 198 192 202 221 190 192 206 203 186 208 171 231 173 210 156 177 153 198 205 118 65 241
325 326 324 324 325 328 329 326 323 328 327 324 331 337 72 309 193 160 171 247 253 223 297 276 299 343 233 179 185 197 181 193 198 199 211 182 202 168 137 128 61 210 142 170 167 191 239
327 327 326 327 326 325 327 329 327 331 335 328 333 5 345 124 137 143 202 234 246 248 213 236 266 299 272 249 211 199 206 220 207 176 188 162 253 146 176 206 169 151 176 70 113 328 255
325 326 328 329 331 331 327 327 330 335 345 336 338 172 124 120 141 44 195 211 261 264 228 250 248 240 244 273 227 221 216 229 173 162 176 183 166 227 190 79 352 183 179 189 220 201 249
322 322 325 330 331 337 335 332 330 341 351 1 351 343 176 32 190 193 266 268 268 273 279 276 254 225 194 255 264 221 205 244 168 163 166 172 209 199 169 128 57 218 173 189 162 141 194
314 317 317 324 331 335 340 337 334 341 349 359 358 277 85 192 137 349 3 320 284 284 264 259 274 259 259 246 237 279 263 194 199 215 177 163 164 214 197 148 128 179 183 191 212 204 191
316 315 314 316 322 330 335 339 338 340 356 1 18 45 7 137 132 349 273 324 301 309 266 287 254 249 347 304 312 244 280 300 127 178 159 181 209 181 225 287 190 252 192 183 207 215 203
308 306 304 308 314 323 328 338 343 334 7 32 45 24 350 297 302 245 179 210 249 299 282 297 264 334 322 274 276 300 325 300 257 189 172 192 179 162 138 156 178 201 175 197 208 224 250
298 306 301 298 302 308 316 324 342 331 358 78 48 346 349 307 314 231 188 192 184 352 254 265 307 319 300 290 307 269 284 259 273 234 189 176 153 168 193 175 268 238 208 203 205 213 235
286 291 293 295 303 302 301 309 323 328 297 200 160 147 287 263 268 262 324 322 282 300 290 295 299 263 292 304 307 266 214 216 177 140 179 163 144 86 135 152 215 66 320 253 226 225 215
285 281 289 285 288 290 287 292 296 310 278 244 199 204 263 268 300 277 281 287 297 291 263 265 285 263 300 304 274 238 179 187 133 54 123 189 141 113 162 200 326 202 196 161 206 182 191
287 279 277 283 276 287 287 283 273 285 275 251 215 215 238 307 243 263 288 286 288 295 283 262 300 319 332 272 250 229 200 179 157 119 65 105 97 160 155 177 205 202 144 193 203 132 191
284 279 272 271 266 276 280 274 264 258 268 240 229 209 220 253 260 273 241 299 300 286 280 311 339 337 359 311 238 210 209 163 170 152 155 129 75 161 151 164 237 225 151 143 188 124 165
281 276 273 273 263 270 271 261 250 242 254 229 246 219 221 247 261 258 250 247 262 267 288 341 296 52 323 295 305 285 194 116 128 146 176 153 143 140 130 141 214 161 143 219 18 84 161
289 288 281 281 269 267 268 262 251 232 236 229 243 239 235 243 255 263 254 249 247 250 293 299 297 286 357 315 338 291 257 185 196 172 213 167 184 174 206 150 34 246 84 263 178 188 150
Wind_Speed_850mb
19 20 21 22 23 24 26 27 29 30 32 32 33 34 35 37 38 37 37 36 35 33 26 20 17 14 11 8 7 11 10 27 33 24 13 3 9 4 9 6 7 10 11 11 3 12 17
20 21 21 22 23 23 24 27 28 30 32 33 35 37 38 39 40 40 39 37 36 31 22 16 13 12 10 7 11 18 11 26 34 29 23 11 4 4 12 7 9 4 11 8 7 7 10
21 23 24 25 25 25 25 26 28 29 32 34 36 37 39 41 43 43 42 36 31 23 15 12 9 10 17 18 10 20 17 19 25 26 23 15 8 1 7 5 6 8 7 6 9 4 6
25 25 25 25 26 28 29 29 31 32 33 35 37 38 39 41 44 44 39 32 19 16 12 9 8 8 10 7 18 21 24 22 21 21 14 17 11 10 7 14 8 8 6 5 2 5 3
27 29 30 28 28 28 28 29 33 34 36 37 38 39 40 41 44 44 33 30 12 16 12 9 8 6 8 5 8 27 28 20 19 13 14 19 14 10 11 6 3 8 4 2 6 12 6
28 29 32 34 34 33 32 30 32 34 36 38 39 39 39 40 41 33 32 18 15 12 8 11 11 5 7 10 3 16 33 23 15 17 14 10 6 8 6 8 2 5 3 3 7 3 12
27 30 33 37 38 37 35 32 34 36 37 39 41 41 38 37 39 30 24 11 12 5 19 14 12 11 23 14 4 12 31 34 17 13 13 4 11 24 25 23 6 8 3 2 8 3 8
33 34 36 38 38 38 34 32 35 38 40 40 41 41 38 34 31 25 14 14 17 18 21 36 39 40 34 15 5 11 32 24 14 17 10 10 25 24 12 19 11 7 4 6 2 2 9
34 34 35 36 36 37 37 35 35 37 40 41 41 41 37 33 21 22 5 22 30 29 9 14 9 8 15 27 13 14 39 22 10 13 17 21 6 13 17 15 16 13 15 4 4 3 2
28 28 30 32 34 37 37 38 37 37 38 38 38 38 36 30 6 23 3 26 30 13 6 4 2 1 13 14 9 16 38 24 6 23 15 11 2 19 17 25 20 24 1 5 4 5 6
27 28 29 31 32 34 36 37 38 39 38 37 36 34 30 27 26 18 10 23 18 7 4 10 3 8 18 11 17 14 33 15 18 15 13 12 17 15 20 21 19 12 13 10 5 3 5
33 33 33 32 33 34 36 37 37 38 37 36 34 32 30 26 22 3 20 16 1 4 2 5 4 5 10 1 5 13 16 10 9 10 3 5 6 13 14 14 20 23 11 11 7 2 7
31 32 33 34 33 33 35 36 38 38 37 36 33 29 34 24 17 18 14 2 3 5 4 7 6 3 8 9 6 8 18 19 13 13 13 7 11 3 7 17 9 9 10 6 6 8 7
30 32 33 35 35 34 34 36 39 39 38 38 33 31 26 21 21 17 4 4 6 1 5 5 6 4 15 15 11 7 20 23 4 7 9 19 16 17 14 12 17 24 23 10 13 9 7
30 31 32 32 33 35 36 35 37 38 37 37 33 29 13 11 14 12 12 5 5 6 4 14 12 5 9 9 7 13 15 29 23 19 12 14 11 5 9 7 11 13 13 2 10 3 5
29 30 31 33 35 36 37 36 37 36 34 34 33 23 2 9 10 25 3 5 5 8 6 2 4 2 2 7 12 16 17 14 23 30 19 9 12 5 8 9 13 10 22 10 1 8 11
29 29 30 31 33 35 38 39 38 35 30 26 22 6 16 15 22 7 5 8 9 14 11 5 3 6 5 3 9 10 9 9 20 21 16 14 5 10 8 17 21 9 7 9 7 4 12
30 30 30 32 33 34 34 36 39 36 28 19 8 1 7 8 3 1 6 7 4 5 7 7 4 12 7 3 8 15 20 15 26 33 25 15 2 8 11 5 2 6 11 17 13 12 3
33 31 29 30 32 32 32 32 35 34 29 26 14 2 9 3 4 5 3 5 7 3 4 2 5 12 6 7 6 13 9 8 39 32 26 19 9 7 9 4 3 7 8 10 8 6 15
33 31 28 27 29 32 32 29 29 28 20 18 8 1 2 7 2 1 3 3 6 7 9 10 8 8 6 7 8 6 5 1 29 19 33 41 9 15 8 5 7 9 13 17 22 12 14
30 27 25 25 27 29 30 28 25 23 15 10 8 4 4 1 4 1 4 3 7 9 3 5 5 11 6 6 7 6 4 8 4 19 16 17 23 10 7 2 4 6 18 27 26 22 19
30 28 25 25 24 25 24 27 24 19 10 3 4 6 8 7 9 4 6 5 5 4 5 5 6 18 11 8 9 21 18 9 4 12 19 9 9 9 6 13 5 8 6 16 20 10 13
33 30 26 25 23 22 22 21 22 16 10 5 4 3 5 6 5 5 5 3 3 10 7 15 18 24 23 21 15 32 48 48 19 9 19 22 15 10 8 10 8 8 5 11 9 11 12
34 32 28 26 23 22 22 20 17 15 8 2 3 0 2 5 6 5 3 12 11 10 12 25 33 12 7 41 56 13 13 14 12 7 12 15 19 3 6 10 10 5 3 14 17 11 19
37 34 32 23 21 26 21 20 17 15 16 11 8 6 2 6 8 18 13 14 23 22 14 17 24 12 43 29 8 6 8 9 8 9 6 7 11 9 9 16 4 5 8 8 11 7 16
37 35 33 29 25 23 23 25 19 17 17 17 16 16 10 7 7 16 11 11 10 9 10 10 20 27 13 5 7 8 10 6 10 9 8 13 8 6 7 10 14 5 8 6 4 5 21
36 35 33 27 26 26 25 22 22 21 18 19 18 19 18 10 21 13 9 5 8 7 8 9 22 13 14 5 8 8 6 2 10 18 12 8 7 10 9 5 4 7 9 9 5 4 14
30 30 31 33 27 30 29 31 28 25 21 24 22 24 26 16 33 23 13 19 14 12 7 13 9 2 8 4 5 1 3 3 4 5 7 9 11 7 6 3 8 14 13 8 3 2 9
34 32 33 29 33 34 31 29 26 28 27 28 28 22 26 33 26 22 38 56 53 38 20 10 9 11 5 7 5 7 3 3 5 10 1 8 4 9 8 3 3 2 2 2 5 5 9
Wind_Direction_850mb
356 355 354 354 354 357 357 356 355 354 354 355 354 353 351 348 344 341 337 330 326 327 321 309 298 291 291 247 199 173 160 184 183 181 179 257 333 41 49 84 116 75 112 75 39 131 94
343 344 344 344 344 345 346 346 345 346 346 347 348 348 348 347 344 341 336 329 327 322 316 303 292 281 275 254 198 181 166 173 180 177 178 179 300 40 87 70 58 49 97 100 76 112 80
333 333 334 336 338 339 338 336 335 336 338 339 341 343 344 345 343 342 335 331 329 324 315 302 286 273 267 245 205 187 176 158 178 176 191 184 179 8 95 114 88 74 99 66 47 82 84
321 323 326 327 328 330 332 333 331 330 330 332 335 338 341 343 342 343 336 336 335 331 324 313 290 271 253 235 217 185 171 170 162 170 173 190 166 126 79 125 57 57 68 34 329 179 94
332 327 321 319 321 322 323 324 324 326 327 328 330 332 337 343 344 344 335 336 320 323 298 298 293 248 260 219 193 193 181 177 177 181 173 178 164 101 123 133 87 45 356 294 302 201 133
321 325 328 327 324 316 315 319 317 320 323 325 327 329 334 342 346 348 343 340 319 313 296 290 267 268 244 170 146 184 196 184 173 168 148 154 109 144 133 191 304 142 206 231 285 150 202
309 313 318 323 326 326 321 312 312 316 319 322 325 327 333 342 347 356 5 353 348 324 308 253 253 258 279 276 240 196 190 184 177 169 183 113 196 190 184 209 125 131 153 255 281 294 217
298 301 305 309 315 319 322 311 308 310 312 315 319 324 331 340 346 2 14 56 28 329 304 293 271 251 244 228 305 190 180 171 178 182 137 172 214 203 195 160 175 186 245 259 235 96 223
302 303 305 309 312 316 318 318 313 312 313 313 315 319 327 339 344 357 342 9 349 336 274 301 291 260 221 213 224 202 175 162 151 162 189 210 193 178 200 178 196 226 249 172 356 104 210
324 319 315 314 314 315 317 318 318 317 317 318 319 317 320 337 350 350 57 345 338 342 306 288 323 58 169 157 198 172 176 174 138 191 162 237 153 183 188 211 203 227 43 170 166 318 339
332 330 326 323 324 323 321 319 318 317 317 319 323 321 312 320 322 338 324 338 335 351 341 354 86 151 163 185 134 173 177 173 170 159 183 189 170 170 206 207 197 216 63 68 97 109 249
332 328 326 324 327 327 326 324 322 321 321 319 320 319 304 309 319 273 322 335 99 262 287 33 121 168 172 167 114 130 170 160 135 129 184 174 166 190 203 191 197 149 91 74 79 17 243
329 330 329 328 327 323 322 320 320 321 323 320 319 313 303 296 294 294 316 335 220 222 351 30 22 178 206 174 141 146 168 184 181 176 195 198 216 192 176 149 146 179 173 205 211 214 262
328 329 330 331 331 329 323 320 317 317 321 321 324 312 301 286 280 272 252 197 211 285 293 342 322 211 199 175 199 142 164 191 153 146 164 197 208 189 173 202 180 195 212 206 223 210 227
327 327 327 327 328 329 328 324 322 320 321 321 328 324 303 269 254 218 164 204 229 205 329 331 315 198 192 202 221 190 192 206 203 186 208 171 231 173 210 156 177 153 198 205 118 65 241
325 326 324 324 325 328 329 326 323 328 327 324 331 337 72 309 193 160 171 247 253 223 297 276 299 343 233 179 185 197 181 193 198 199 211 182 202 168 137 128 61 210 142 170 167 191 239
327 327 326 327 326 325 327 329 327 331 335 328 333 5 345 124 137 143 202 234 246 248 213 236 266 299 272 249 211 199 206 220 207 176 188 162 253 146 176 206 169 151 176 70 113 328 255
325 326 328 329 331 331 327 327 330 335 345 336 338 172 124 120 141 44 195 211 261 264 228 250 248 240 244 273 227 221 216 229 173 162 176 183 166 227 190 79 352 183 179 189 220 201 249
322 322 325 330 331 337 335 332 330 341 351 1 351 343 176 32 190 193 266 268 268 273 279 276 254 225 194 255 264 221 205 244 168 163 166 172 209 199 169 128 57 218 173 189 162 141 194
314 317 317 324 331 335 340 337 334 341 349 359 358 277 85 192 137 349 3 320 284 284 264 259 274 259 259 246 237 279 263 194 199 215 177 163 164 214 197 148 128 179 183 191 212 204 191
316 315 314 316 322 330 335 339 338 340 356 1 18 45 7 137 132 349 273 324 301 309 266 287 254 249 347 304 312 244 280 300 127 178 159 181 209 181 225 287 190 252 192 183 207 215 203
308 306 304 308 314 323 328 338 343 334 7 32 45 24 350 297 302 245 179 210 249 299 282 297 264 334 322 274 276 300 325 300 257 189 172 192 179 162 138 156 178 201 175 197 208 224 250
298 306 301 298 302 308 316 324 342 331 358 78 48 346 349 307 314 231 188 192 184 352 254 265 307 319 300 290 307 269 284 259 273 234 189 176 153 168 193 175 268 238 208 203 205 213 235
286 291 293 295 303 302 301 309 323 328 297 200 160 147 287 263 268 262 324 322 282 300 290 295 299 263 292 304 307 266 214 216 177 140 179 163 144 86 135 152 215 66 320 253 226 225 215
285 281 289 285 288 290 287 292 296 310 278 244 199 204 263 268 300 277 281 287 297 291 263 265 285 263 300 304 274 238 179 187 133 54 123 189 141 113 162 200 326 202 196 161 206 182 191
287 279 277 283 276 287 287 283 273 285 275 251 215 215 238 307 243 263 288 286 288 295 283 262 300 319 332 272 250 229 200 179 157 119 65 105 97 160 155 177 205 202 144 193 203 132 191
284 279 272 271 266 276 280 274 264 258 268 240 229 209 220 253 260 273 241 299 300 286 280 311 339 337 359 311 238 210 209 163 170 152 155 129 75 161 151 164 237 225 151 143 188 124 165
281 276 273 273 263 270 271 261 250 242 254 229 246 219 221 247 261 258 250 247 262 267 288 341 296 52 323 295 305 285 194 116 128 146 176 153 143 140 130 141 214 161 143 219 18 84 161
289 288 281 281 269 267 268 262 251 232 236 229 243 239 235 243 255 263 254 249 247 250 293 299 297 286 357 315 338 291 257 185 196 172 213 167 184 174 206 150 34 246 84 263 178 188 150